Weather History for Lone Rock, WI

Change the Weather History Date:

Monday, April 7, 2014

  Actual Average Record
Temperature  
Mean Temperature 50 °F -  
Max Temperature 61 °F 52 °F 73 °F (2001)
Min Temperature 39 °F 32 °F 19 °F (2007)
Degree Days  
Heating Degree Days 15    
Moisture  
Dew Point 39 °F    
Average Humidity 70    
Maximum Humidity 86    
Minimum Humidity 46    
Precipitation  
Precipitation 0.01 in - - ()
Sea Level Pressure  
Sea Level Pressure 29.76 in    
Wind  
Wind Speed 3 mph (NW)    
Max Wind Speed 13 mph    
Max Gust Speed -    
Visibility 10 miles    
Events Rain    
Averages and records for this station are not official NWS values.
T = Trace of Precipitation, MM = Missing Value Source: NWS Daily Summary

Daily Weather History Graph

Daily Weather History Graph

Search for Another Location

Airport:

Trip Planner

Search our weather history database for the weather conditions in past years. The results will help you decide how hot, cold, wet, or windy it might be!

Date:

Astronomy

Apr. 07, 2014 Rise Set
Actual Time 6:32 AM CDT 7:34 PM CDT
Civil Twilight 6:03 AM CDT 8:03 PM CDT
Nautical Twilight 5:28 AM CDT 8:38 PM CDT
Astronomical Twilight 4:52 AM CDT 9:14 PM CDT
Moon 12:23 PM CDT (4/7) 2:15 AM CDT (4/7)
Length of Visible Light 14h 00m
Length of Day
13h 02m
First Quarter, 53% of the Moon is Illuminated
Apr 7
First Quarter
Apr 15
Full
Apr 22
Last Quarter
Apr 29
New
May 6
First Quarter

Hourly Weather History & Observations

Time (CDT) Temp. Windchill Dew Point Humidity Pressure Visibility Wind Dir Wind Speed Gust Speed Precip Events Conditions
12:56 AM 43.0 °F - 35.1 °F 74% 29.89 in 10.0 mi Calm Calm - N/A   Overcast
1:56 AM 39.0 °F - 34.0 °F 82% 29.88 in 10.0 mi Calm Calm - N/A   Mostly Cloudy
2:56 AM 43.0 °F - 36.0 °F 76% 29.85 in 10.0 mi Calm Calm - N/A   Overcast
3:56 AM 44.1 °F - 35.1 °F 71% 29.83 in 10.0 mi Calm Calm - N/A   Overcast
4:56 AM 39.9 °F - 36.0 °F 86% 29.82 in 10.0 mi Calm Calm - N/A   Overcast
5:56 AM 41.0 °F - 36.0 °F 82% 29.83 in 10.0 mi Calm Calm - N/A   Overcast
6:56 AM 41.0 °F - 37.0 °F 86% 29.84 in 10.0 mi Calm Calm - N/A   Overcast
7:56 AM 43.0 °F - 37.9 °F 82% 29.84 in 10.0 mi Calm Calm - N/A   Overcast
8:56 AM 43.0 °F - 39.0 °F 86% 29.83 in 8.0 mi Calm Calm - 0.01 in Rain Light Rain
9:56 AM 45.0 °F 43.5 °F 39.9 °F 82% 29.82 in 10.0 mi East 3.5 mph - 0.00 in   Overcast
11:56 AM 51.1 °F - 42.1 °F 71% 29.76 in 10.0 mi West 4.6 mph - 0.00 in   Mostly Cloudy
12:56 PM 55.9 °F - 42.1 °F 60% 29.73 in 10.0 mi NW 10.4 mph - N/A   Mostly Cloudy
1:56 PM 61.0 °F - 42.1 °F 50% 29.70 in 10.0 mi Variable 5.8 mph - N/A   Clear
2:56 PM 59.0 °F - 37.9 °F 46% 29.68 in 10.0 mi WNW 11.5 mph - N/A   Mostly Cloudy
3:56 PM 59.0 °F - 39.0 °F 48% 29.67 in 10.0 mi WNW 12.7 mph - N/A   Partly Cloudy
4:56 PM 57.0 °F - 41.0 °F 55% 29.67 in 10.0 mi WNW 12.7 mph - N/A   Overcast
5:56 PM 57.9 °F - 41.0 °F 53% 29.66 in 10.0 mi West 9.2 mph - N/A   Mostly Cloudy
6:56 PM 55.9 °F - 41.0 °F 57% 29.66 in 10.0 mi NW 11.5 mph - N/A   Overcast
7:56 PM 52.0 °F - 42.1 °F 69% 29.68 in 10.0 mi North 10.4 mph - N/A   Overcast
8:56 PM 48.9 °F - 39.0 °F 69% 29.70 in 10.0 mi NNW 9.2 mph - N/A   Clear
9:56 PM 48.9 °F - 39.0 °F 69% 29.70 in 10.0 mi WNW 3.5 mph - N/A   Clear
10:56 PM 43.0 °F 40.3 °F 37.0 °F 80% 29.69 in 10.0 mi West 4.6 mph - N/A   Clear
11:56 PM 43.0 °F 39.5 °F 37.9 °F 82% 29.70 in 10.0 mi WNW 5.8 mph - N/A   Overcast